period_start,C,m1,H,J0,J1,J2,J3,J4,J5,JA,JB,JC,JD,JJ,JK,JN,#
2018-02-18 00:03:01,0.23,3.87,0.00,25.71,28.95,31.97,14.04,51.70,1027.87,2017.00,2128.14,2227.42,2467.78,599.96,597.02,40.23,0000 0000 0000 0000 000000
2018-02-18 00:08:02,0.24,3.88,0.00,25.71,28.95,31.97,13.99,51.72,1027.86,2017.00,2124.91,2225.52,2465.57,599.98,597.14,40.29,0000 0000 0000 0000 000000
2018-02-18 00:13:04,0.24,3.89,0.00,25.76,28.94,32.01,13.97,51.66,1027.87,2017.00,2121.66,2223.62,2463.36,599.83,596.90,40.34,0000 0000 0000 0000 000000
2018-02-18 00:18:05,0.22,3.90,0.00,25.83,28.92,32.12,14.07,51.68,1027.86,2017.00,2118.62,2221.78,2461.35,599.99,596.90,40.39,0000 0000 0000 0000 000000
2018-02-18 00:23:06,0.20,3.91,0.00,25.86,28.91,32.14,14.03,51.67,1027.85,2017.00,2115.83,2220.09,2459.43,600.04,596.89,40.44,0000 0000 0000 0000 000000
2018-02-18 00:28:08,0.20,3.92,0.00,25.85,28.89,32.07,13.96,51.68,1027.85,2017.00,2113.17,2218.51,2457.57,599.81,596.76,40.49,0000 0000 0000 0000 000000
2018-02-18 00:33:09,0.20,3.93,0.00,25.88,28.86,32.01,13.97,51.64,1027.85,2017.00,2110.51,2216.85,2455.69,600.06,596.82,40.54,0000 0000 0000 0000 000000
2018-02-18 00:38:10,0.17,3.95,0.00,25.92,28.84,31.98,13.97,51.60,1027.85,2017.02,2108.16,2215.41,2453.97,599.80,596.65,40.59,0000 0000 0000 0000 000000
2018-02-18 00:43:12,0.16,3.95,0.00,25.95,28.81,31.89,13.99,51.66,1027.85,2017.07,2106.01,2214.11,2452.49,600.09,596.82,40.64,0000 0000 0000 0000 000000
2018-02-18 00:48:13,0.18,3.96,0.00,25.95,28.79,31.85,14.03,51.69,1027.85,2017.34,2104.01,2212.88,2451.10,599.72,596.44,40.69,0000 0000 0000 0000 000000
2018-02-18 00:53:14,0.15,3.97,0.00,25.96,28.76,31.84,14.00,51.63,1027.85,2017.39,2102.19,2211.73,2449.75,599.83,596.51,40.74,0000 0000 0000 0000 000000
2018-02-18 00:58:16,0.15,3.98,0.00,25.99,28.73,31.79,13.97,51.66,1027.84,2017.76,2100.61,2210.82,2448.64,600.34,596.87,40.79,0000 0000 0000 0000 000000
2018-02-18 01:03:17,0.11,3.99,0.00,26.02,28.70,31.73,13.96,51.67,1027.84,2017.95,2099.24,2209.96,2447.72,600.15,596.68,40.84,0000 0000 0000 0000 000000
2018-02-18 01:08:18,0.11,3.99,0.00,26.05,28.67,31.67,13.94,51.74,1027.84,2017.98,2097.89,2209.08,2446.81,599.78,596.20,40.89,0000 0000 0000 0000 000000
2018-02-18 01:13:19,0.11,4.00,0.00,26.06,28.64,31.59,13.96,51.58,1027.84,2017.99,2096.60,2208.39,2445.89,600.10,596.59,40.94,0000 0000 0000 0000 000000
2018-02-18 01:18:21,0.08,4.00,0.00,26.10,28.61,31.55,13.93,51.70,1027.84,2017.99,2095.38,2207.70,2444.99,599.83,596.20,40.99,0000 0000 0000 0000 000000
2018-02-18 01:23:22,0.10,4.01,0.00,26.12,28.59,31.51,13.92,51.60,1027.84,2018.02,2094.02,2206.84,2444.01,599.76,596.10,41.04,0000 0000 0000 0000 000000
2018-02-18 01:28:23,0.14,4.01,0.00,26.12,28.56,31.48,13.89,51.58,1027.85,2018.03,2092.36,2205.76,2442.79,600.02,596.40,41.09,0000 0000 0000 0000 000000
2018-02-18 01:33:25,0.15,4.02,0.00,26.14,28.54,31.42,13.99,51.64,1027.85,2018.09,2090.52,2204.66,2441.52,600.15,596.45,41.14,0000 0000 0000 0000 000000
2018-02-18 01:38:26,0.16,4.03,0.00,26.16,28.51,31.45,13.90,51.54,1027.83,2018.32,2088.80,2203.66,2440.39,600.04,596.22,41.20,0000 0000 0000 0000 000000
2018-02-18 01:43:27,0.14,4.04,0.00,26.16,28.49,31.37,13.97,51.73,1027.82,2018.77,2087.26,2202.70,2439.26,600.08,596.27,41.25,0000 0000 0000 0000 000000
2018-02-18 01:48:28,0.12,4.04,0.00,26.18,28.46,31.32,13.91,51.80,1027.84,2018.92,2085.76,2201.82,2438.23,600.12,596.28,41.30,0000 0000 0000 0000 000000
2018-02-18 01:53:29,0.09,4.05,0.00,26.21,28.44,31.34,13.95,51.79,1027.85,2018.97,2084.54,2201.01,2437.22,599.96,596.18,41.35,0000 0000 0000 0000 000000
2018-02-18 01:58:31,0.09,4.05,0.00,26.23,28.42,31.28,14.00,51.83,1027.85,2018.99,2083.48,2200.28,2436.55,600.14,596.19,41.40,0000 0000 0000 0000 000000
2018-02-18 02:03:32,0.05,4.06,0.00,26.26,28.40,31.26,13.94,51.88,1027.85,2018.99,2082.43,2199.87,2435.85,599.97,596.04,41.45,0000 0000 0000 0000 000000
2018-02-18 02:08:33,0.09,4.06,0.00,26.27,28.37,31.22,13.88,51.75,1027.85,2018.99,2081.47,2199.07,2435.03,600.09,596.13,41.50,0000 0000 0000 0000 000000
2018-02-18 02:13:35,0.08,4.06,0.00,26.29,28.36,31.21,13.95,51.83,1027.85,2018.99,2080.57,2198.63,2434.26,599.89,595.88,41.55,0000 0000 0000 0000 000000
2018-02-18 02:18:36,0.06,4.07,0.00,26.29,28.34,31.20,13.89,51.79,1027.85,2019.02,2079.56,2198.01,2433.64,600.04,596.04,41.60,0000 0000 0000 0000 000000
2018-02-18 02:23:37,0.08,4.07,0.00,26.30,28.32,31.23,13.94,51.79,1027.85,2019.02,2078.62,2197.31,2432.96,599.99,595.94,41.65,0000 0000 0000 0000 000000
2018-02-18 02:28:39,0.06,4.08,0.00,26.31,28.30,31.23,13.87,51.77,1027.85,2019.05,2077.64,2196.96,2432.18,600.00,595.95,41.70,0000 0000 0000 0000 000000
2018-02-18 02:33:40,0.10,4.08,0.00,26.31,28.29,31.21,13.95,51.79,1027.85,2019.21,2076.80,2196.19,2431.66,599.92,596.01,41.75,0000 0000 0000 0000 000000
2018-02-18 02:38:41,0.07,4.09,0.00,26.31,28.27,31.25,13.94,51.78,1027.85,2019.48,2075.87,2195.87,2431.01,599.97,595.97,41.80,0000 0000 0000 0000 000000
2018-02-18 02:43:43,0.12,4.09,0.00,26.35,28.26,31.18,13.96,51.76,1027.86,2019.78,2074.95,2195.10,2430.27,600.01,595.91,41.85,0000 0000 0000 0000 000000
2018-02-18 02:48:44,0.06,4.09,0.00,26.34,28.25,31.13,13.94,51.77,1027.86,2019.83,2074.03,2194.71,2429.66,600.08,595.94,41.90,0000 0000 0000 0000 000000
2018-02-18 02:53:46,0.07,4.10,0.00,26.35,28.23,31.26,13.90,51.80,1027.86,2019.90,2073.10,2194.02,2429.01,599.90,595.76,41.95,0000 0000 0000 0000 000000
2018-02-18 02:58:47,0.08,4.10,0.00,26.36,28.22,31.17,13.92,51.86,1027.86,2019.97,2072.24,2193.65,2428.28,600.04,595.92,42.00,0000 0000 0000 0000 000000
2018-02-18 03:03:49,0.06,4.11,0.00,26.35,28.22,31.19,13.93,51.92,1027.87,2019.98,2071.37,2193.02,2427.80,599.89,595.76,42.05,0000 0000 0000 0000 000000
2018-02-18 03:08:50,0.08,4.11,0.00,26.36,28.20,31.19,13.90,52.03,1027.86,2019.97,2070.54,2192.56,2427.04,599.85,595.87,42.11,0000 0000 0000 0000 000000
2018-02-18 03:13:51,0.05,4.11,0.00,26.37,28.20,31.19,13.91,51.94,1027.85,2019.98,2069.73,2192.00,2426.43,600.04,596.02,42.16,0000 0000 0000 0000 000000
2018-02-18 03:18:52,0.06,4.12,0.00,26.39,28.19,31.23,13.94,52.02,1027.86,2019.99,2068.92,2191.53,2425.91,600.28,596.10,42.21,0000 0000 0000 0000 000000
2018-02-18 03:23:53,0.06,4.12,0.00,26.41,28.17,31.17,13.84,51.93,1027.86,2019.99,2068.03,2191.01,2425.10,599.55,595.33,42.26,0000 0000 0000 0000 000000
2018-02-18 03:28:55,0.09,4.12,0.00,26.43,28.17,31.18,13.90,52.02,1027.87,2019.99,2067.10,2190.33,2424.48,600.19,596.06,42.31,0000 0000 0000 0000 000000
2018-02-18 03:33:56,0.04,4.13,0.00,26.43,28.17,31.17,13.97,52.02,1027.89,2019.99,2066.24,2189.97,2423.95,600.21,595.95,42.36,0000 0000 0000 0000 000000
2018-02-18 03:38:58,0.09,4.13,0.00,26.43,28.16,31.10,13.89,51.95,1027.94,2019.99,2065.36,2189.26,2423.14,599.74,595.52,42.41,0000 0000 0000 0000 000000
2018-02-18 03:43:59,0.04,4.13,0.00,26.40,28.15,31.05,13.87,51.95,1027.91,2019.99,2064.61,2188.96,2422.69,600.35,596.07,42.46,0000 0000 0000 0000 000000
2018-02-18 03:49:00,0.07,4.14,0.00,26.44,28.15,31.06,13.93,51.98,1027.87,2019.99,2063.78,2188.20,2421.99,600.00,595.72,42.51,0000 0000 0000 0000 000000
2018-02-18 03:54:02,0.05,4.14,0.00,26.44,28.14,31.08,13.91,51.98,1027.87,2019.99,2062.93,2187.96,2421.29,600.15,595.92,42.56,0000 0000 0000 0000 000000
2018-02-18 03:59:03,0.08,4.15,0.00,26.45,28.12,31.07,13.92,52.07,1027.87,2019.99,2062.06,2187.19,2420.82,600.29,595.98,42.61,0000 0000 0000 0000 000000
2018-02-18 04:04:04,0.05,4.15,0.00,26.47,28.12,31.03,13.89,51.94,1027.86,2019.99,2061.20,2186.98,2420.05,600.00,595.71,42.66,0000 0000 0000 0000 000000
2018-02-18 04:09:05,0.09,4.15,0.00,26.48,28.12,31.04,13.92,51.99,1027.85,2019.99,2060.35,2186.18,2419.47,600.20,595.87,42.71,0000 0000 0000 0000 000000
2018-02-18 04:14:06,0.04,4.15,0.00,26.47,28.11,31.02,13.97,52.07,1027.85,2019.99,2059.46,2185.90,2418.94,600.26,595.90,42.76,0000 0000 0000 0000 000000
2018-02-18 04:19:08,0.08,4.16,0.00,26.48,28.10,31.01,13.88,51.99,1027.85,2020.01,2058.63,2185.11,2418.14,599.90,595.56,42.81,0000 0000 0000 0000 000000
2018-02-18 04:24:09,0.06,4.16,0.00,26.48,28.10,30.98,13.94,52.07,1027.86,2020.01,2057.72,2184.82,2417.54,600.36,596.01,42.86,0000 0000 0000 0000 000000
2018-02-18 04:29:10,0.05,4.17,0.00,26.49,28.10,30.98,13.84,52.08,1027.85,2020.01,2056.93,2184.07,2416.98,599.80,595.37,42.91,0000 0000 0000 0000 000000
2018-02-18 04:34:11,0.07,4.17,0.00,26.48,28.09,30.98,13.93,52.08,1027.85,2020.01,2056.02,2183.74,2416.20,600.10,595.88,42.96,0000 0000 0000 0000 000000
2018-02-18 04:39:13,0.07,4.17,0.00,26.50,28.07,31.03,13.93,52.06,1027.85,2020.01,2055.13,2183.05,2415.69,600.27,595.77,43.01,0000 0000 0000 0000 000000
2018-02-18 04:44:14,0.06,4.18,0.00,26.50,28.07,31.04,13.96,52.12,1027.85,2020.02,2054.25,2182.76,2415.03,600.24,595.83,43.07,0000 0000 0000 0000 000000
2018-02-18 04:49:15,0.08,4.18,0.00,26.51,28.07,30.98,13.82,52.07,1027.85,2020.03,2053.46,2182.03,2414.34,599.93,595.55,43.12,0000 0000 0000 0000 000000
2018-02-18 04:54:17,0.08,4.18,0.00,26.52,28.07,30.92,13.88,52.24,1027.85,2020.02,2052.51,2181.55,2413.73,599.72,595.25,43.17,0000 0000 0000 0000 000000
2018-02-18 04:59:18,0.04,4.19,0.00,26.51,28.05,30.94,13.88,52.08,1027.85,2020.02,2051.69,2181.01,2413.03,600.09,595.72,43.22,0000 0000 0000 0000 000000
2018-02-18 05:04:19,0.10,4.19,0.00,26.51,28.05,30.98,13.87,52.05,1027.85,2020.06,2050.75,2180.37,2412.29,599.87,595.51,43.27,0000 0000 0000 0000 000000
2018-02-18 05:09:21,0.05,4.19,0.00,26.52,28.05,30.98,13.87,52.17,1027.85,2020.05,2049.77,2179.95,2411.71,599.95,595.47,43.32,0000 0000 0000 0000 000000
2018-02-18 05:14:22,0.08,4.20,0.00,26.54,28.05,31.00,13.92,52.23,1027.85,2020.05,2048.84,2179.13,2410.97,600.08,595.65,43.37,0000 0000 0000 0000 000000
2018-02-18 05:19:23,0.09,4.20,0.00,26.55,28.05,30.96,13.87,52.13,1027.85,2020.10,2047.81,2178.70,2410.13,599.62,595.10,43.42,0000 0000 0000 0000 000000
2018-02-18 05:24:25,0.06,4.21,0.00,26.55,28.04,30.96,13.88,52.11,1027.85,2020.11,2047.02,2178.02,2409.44,599.83,595.39,43.47,0000 0000 0000 0000 000000
2018-02-18 05:29:26,0.09,4.21,0.00,26.55,28.02,30.95,13.93,52.25,1027.86,2020.13,2046.17,2177.27,2408.73,600.31,595.76,43.52,0000 0000 0000 0000 000000
2018-02-18 05:34:27,0.08,4.22,0.00,26.56,28.02,30.98,13.87,52.17,1027.86,2020.20,2045.22,2176.71,2407.89,599.80,595.27,43.57,0000 0000 0000 0000 000000
2018-02-18 05:39:29,0.07,4.22,0.00,26.57,28.02,31.01,13.96,52.07,1027.85,2020.11,2044.05,2175.87,2406.91,599.90,595.29,43.62,0000 0000 0000 0000 000000
2018-02-18 05:44:31,0.11,4.23,0.00,26.58,28.02,31.04,13.92,52.09,1027.86,2020.12,2042.81,2175.04,2405.95,600.09,595.39,43.67,0000 0000 0000 0000 000000
2018-02-18 05:49:32,0.10,4.23,0.00,26.58,28.01,31.01,13.86,52.15,1027.86,2020.11,2041.64,2174.28,2405.00,600.16,595.54,43.72,0000 0000 0000 0000 000000
2018-02-18 05:54:33,0.13,4.24,0.00,26.59,28.00,31.03,13.89,52.06,1027.86,2020.26,2040.50,2173.51,2404.08,599.90,595.36,43.77,0000 0000 0000 0000 000000
2018-02-18 05:59:35,0.10,4.24,0.00,26.59,28.00,31.08,13.84,52.18,1027.86,2020.26,2039.30,2172.65,2403.10,599.85,595.25,43.82,0000 0000 0000 0000 000000
2018-02-18 06:04:36,0.08,4.25,0.00,26.59,28.00,31.05,13.99,52.13,1027.87,2020.22,2038.01,2171.84,2402.10,600.32,595.76,43.87,0000 0000 0000 0000 000000
2018-02-18 06:09:37,0.13,4.25,0.00,26.60,28.00,31.02,13.90,52.04,1027.86,2020.36,2036.76,2170.96,2401.11,600.12,595.52,43.93,0000 0000 0000 0000 000000
2018-02-18 06:14:39,0.11,4.26,0.00,26.61,28.00,31.06,13.84,52.08,1027.86,2020.44,2035.54,2170.04,2400.10,599.73,595.07,43.98,0000 0000 0000 0000 000000
2018-02-18 06:19:40,0.11,4.27,0.00,26.61,27.99,31.08,13.85,52.11,1027.87,2020.55,2034.29,2169.14,2399.04,599.86,595.30,44.03,0000 0000 0000 0000 000000
2018-02-18 06:24:41,0.11,4.27,0.00,26.62,27.97,31.04,13.90,52.02,1027.88,2020.60,2032.97,2168.27,2397.98,599.98,595.32,44.08,0000 0000 0000 0000 000000
2018-02-18 06:29:43,0.11,4.28,0.00,26.61,27.97,31.07,13.86,52.12,1027.89,2020.60,2031.79,2167.37,2396.98,599.85,595.13,44.13,0000 0000 0000 0000 000000
2018-02-18 06:34:44,0.11,4.28,0.00,26.62,27.97,31.05,13.94,52.03,1027.87,2020.61,2030.51,2166.50,2395.97,600.04,595.39,44.18,0000 0000 0000 0000 000000
2018-02-18 06:39:45,0.11,4.29,0.00,26.62,27.97,31.09,13.88,52.12,1027.86,2020.61,2029.23,2165.61,2394.95,600.06,595.38,44.23,0000 0000 0000 0000 000000
2018-02-18 06:44:46,0.11,4.29,0.00,26.62,27.97,31.05,13.92,52.07,1027.86,2020.80,2027.92,2164.76,2393.93,600.07,595.33,44.28,0000 0000 0000 0000 000000
2018-02-18 06:49:48,0.11,4.30,0.00,26.63,27.97,31.08,13.91,52.07,1027.87,2020.75,2026.60,2163.79,2392.89,600.06,595.39,44.33,0000 0000 0000 0000 000000
2018-02-18 06:54:49,0.11,4.31,0.00,26.62,27.97,31.06,13.85,52.02,1027.87,2020.86,2025.42,2162.95,2391.90,600.07,595.49,44.38,0000 0000 0000 0000 000000
2018-02-18 06:59:50,0.10,4.31,0.00,26.61,27.97,31.09,13.89,52.05,1027.87,2020.86,2024.18,2162.07,2390.88,599.99,595.42,44.43,0000 0000 0000 0000 000000
2018-02-18 07:04:51,0.12,4.32,0.00,26.63,27.95,31.09,13.88,52.12,1027.86,2020.90,2022.93,2161.18,2389.88,599.92,595.29,44.48,0000 0000 0000 0000 000000
2018-02-18 07:09:53,0.09,4.32,0.00,26.64,27.96,31.10,13.85,52.08,1027.86,2020.81,2021.67,2160.32,2388.87,599.56,594.89,44.53,0000 0000 0000 0000 000000
2018-02-18 07:14:54,0.12,4.33,0.00,26.64,27.96,31.14,13.92,52.08,1027.86,2020.85,2020.43,2159.55,2387.89,599.90,595.16,44.58,0000 0000 0000 0000 000000
2018-02-18 07:19:55,0.10,4.33,0.00,26.62,27.95,31.12,13.85,52.03,1027.86,2020.81,2019.03,2158.57,2386.84,599.89,595.26,44.63,0000 0000 0000 0000 000000
2018-02-18 07:24:57,0.12,4.34,0.00,26.63,27.95,31.11,13.91,52.08,1027.86,2020.90,2017.66,2157.71,2385.82,599.96,595.33,44.68,0000 0000 0000 0000 000000
2018-02-18 07:29:58,0.10,4.35,0.00,26.62,27.95,31.08,13.91,52.07,1027.89,2020.87,2016.35,2156.81,2384.79,600.35,595.70,44.73,0000 0000 0000 0000 000000
2018-02-18 07:34:59,0.09,4.35,0.00,26.62,27.95,31.12,13.84,52.14,1027.97,2020.76,2015.03,2155.92,2383.74,599.83,595.25,44.78,0000 0000 0000 0000 000000
2018-02-18 07:40:01,0.12,4.36,0.00,26.63,27.95,31.14,13.87,52.18,1028.07,2020.76,2013.65,2154.97,2382.65,599.61,595.14,44.83,0000 0000 0000 0000 000000
2018-02-18 07:45:02,0.08,4.36,0.00,26.62,27.95,31.11,13.87,52.22,1028.10,2020.37,2012.18,2153.93,2381.46,599.81,595.29,44.89,0000 0000 0000 0000 000000
2018-02-18 07:50:03,0.14,4.37,0.00,26.62,27.95,31.13,13.94,52.12,1028.04,2020.14,2010.42,2152.71,2380.10,600.34,595.79,44.94,0000 0000 0000 0000 000000
2018-02-18 07:55:05,0.20,4.38,0.00,26.58,27.95,31.10,13.83,52.19,1028.07,2020.10,2007.96,2151.25,2378.39,599.84,595.41,44.99,0000 0000 0000 0000 000000
2018-02-18 08:00:07,0.22,4.39,0.00,26.58,27.95,31.10,13.92,52.15,1028.14,2020.14,2005.36,2149.58,2376.57,599.86,595.38,45.04,0000 0000 0000 0000 000000
2018-02-18 08:05:08,0.20,4.40,0.00,26.60,27.95,31.13,13.93,52.22,1028.25,2020.23,2003.00,2148.00,2374.81,599.95,595.57,45.09,0000 0000 0000 0000 000000
2018-02-18 08:10:09,0.19,4.41,0.00,26.61,27.95,31.12,13.90,52.04,1028.30,2020.24,2000.74,2146.59,2373.21,600.30,595.80,45.14,0000 0000 0000 0000 000000
2018-02-18 08:15:10,0.16,4.42,0.00,26.61,27.95,31.11,13.89,52.07,1028.31,2020.18,1998.56,2145.11,2371.62,599.89,595.50,45.19,0000 0000 0000 0000 000000
2018-02-18 08:20:12,0.16,4.43,0.00,26.60,27.95,31.11,13.84,52.09,1028.32,2020.11,1996.47,2143.74,2370.18,599.87,595.48,45.24,0000 0000 0000 0000 000000
2018-02-18 08:25:13,0.17,4.44,0.00,26.60,27.95,31.13,13.92,51.95,1028.29,2020.05,1994.34,2142.39,2368.66,600.45,596.13,45.29,0000 0000 0000 0000 000000
2018-02-18 08:30:14,0.29,4.45,0.00,26.60,27.95,31.12,13.88,52.02,1028.30,2020.22,1991.52,2140.53,2366.80,600.08,595.73,45.34,0000 0000 0000 0000 000000
2018-02-18 08:35:15,0.23,4.46,0.00,26.60,27.95,31.12,13.92,51.98,1028.30,2020.16,1988.46,2138.46,2364.69,599.91,595.65,45.39,0000 0000 0000 0000 000000
2018-02-18 08:40:16,0.29,4.48,0.00,26.61,27.94,31.15,13.90,52.07,1028.28,2020.26,1985.29,2136.36,2362.44,599.47,595.14,45.44,0000 0000 0000 0000 000000
2018-02-18 08:45:18,0.26,4.49,0.00,26.61,27.94,31.11,13.97,52.16,1028.27,2020.33,1982.27,2134.27,2360.22,600.45,596.08,45.49,0000 0000 0000 0000 000000
2018-02-18 08:50:19,0.25,4.50,0.00,26.61,27.93,31.13,13.87,52.12,1028.28,2020.47,1979.29,2132.39,2358.20,600.09,595.67,45.54,0000 0000 0000 0000 000000
2018-02-18 08:55:20,0.25,4.52,0.00,26.61,27.94,31.11,13.90,52.07,1028.31,2020.36,1976.18,2130.44,2356.11,600.06,595.70,45.59,0000 0000 0000 0000 000000
2018-02-18 09:00:22,0.29,4.53,0.00,26.61,27.94,31.13,13.93,52.07,1028.33,2020.47,1972.91,2128.38,2353.88,600.06,595.72,45.64,0000 0000 0000 0000 000000
2018-02-18 09:05:23,0.26,4.54,0.00,26.60,27.94,31.14,13.95,52.25,1028.33,2020.29,1969.50,2126.27,2351.57,600.09,595.67,45.69,0000 0000 0000 0000 000000
2018-02-18 09:10:24,0.24,4.56,0.00,26.60,27.94,31.11,13.95,52.22,1028.33,2020.28,1966.26,2124.32,2349.43,600.45,596.13,45.74,0000 0000 0000 0000 000000
2018-02-18 09:15:25,0.25,4.57,0.00,26.60,27.93,31.15,13.89,52.27,1028.33,2020.40,1963.53,2122.70,2347.62,599.94,595.53,45.79,0000 0000 0000 0000 000000
2018-02-18 09:20:27,0.22,4.58,0.00,26.59,27.92,31.14,13.88,52.27,1028.33,2020.42,1960.75,2121.17,2345.80,599.81,595.45,45.85,0000 0000 0000 0000 000000
2018-02-18 09:25:28,0.20,4.59,0.00,26.58,27.92,31.14,13.89,52.32,1028.33,2020.42,1958.07,2119.65,2344.09,599.97,595.67,45.90,0000 0000 0000 0000 000000
2018-02-18 09:30:29,0.19,4.60,0.00,26.57,27.92,31.09,13.92,52.33,1028.33,2020.41,1955.57,2118.35,2342.54,599.92,595.57,45.95,0000 0000 0000 0000 000000
2018-02-18 09:35:30,0.17,4.61,0.00,26.58,27.92,31.10,13.99,52.38,1028.33,2020.44,1953.25,2117.15,2341.23,600.30,596.03,46.00,0000 0000 0000 0000 000000
2018-02-18 09:40:31,0.21,4.62,0.00,26.55,27.92,31.13,13.91,52.38,1028.33,2020.51,1950.71,2115.91,2339.77,599.62,595.52,46.05,0000 0000 0000 0000 000000
2018-02-18 09:45:33,0.16,4.63,0.00,26.57,27.92,31.13,13.94,52.40,1028.33,2020.41,1948.28,2114.77,2338.49,600.10,595.82,46.10,0000 0000 0000 0000 000000
2018-02-18 09:50:34,0.19,4.64,0.00,26.58,27.92,31.13,13.87,52.40,1028.32,2020.39,1945.76,2113.57,2337.04,599.91,595.62,46.15,0000 0000 0000 0000 000000
2018-02-18 09:55:36,0.24,4.65,0.00,26.56,27.92,31.12,13.93,52.38,1028.28,2020.42,1942.87,2112.09,2335.31,600.25,595.89,46.20,0000 0000 0000 0000 000000
2018-02-18 10:00:37,0.25,4.66,0.00,26.57,27.92,31.09,13.90,52.45,1028.29,2020.46,1939.79,2110.50,2333.28,599.99,595.67,46.25,0000 0000 0000 0000 000000
2018-02-18 10:05:39,0.17,4.67,0.00,26.57,27.92,31.12,13.85,52.43,1028.30,2020.29,1937.11,2109.04,2331.52,599.55,595.19,46.30,0000 0000 0000 0000 000000
2018-02-18 10:10:40,0.19,4.68,0.00,26.57,27.92,31.11,13.92,52.43,1028.33,2020.22,1934.48,2107.65,2329.79,600.19,595.86,46.35,0000 0000 0000 0000 000000
2018-02-18 10:15:41,0.19,4.69,0.00,26.57,27.92,31.08,13.90,52.47,1028.33,2020.18,1931.96,2106.36,2328.30,599.80,595.43,46.40,0000 0000 0000 0000 000000
2018-02-18 10:20:43,0.15,4.70,0.00,26.58,27.92,31.11,13.91,52.43,1028.33,2020.17,1929.90,2105.38,2326.99,599.82,595.65,46.45,0000 0000 0000 0000 000000
2018-02-18 10:25:44,0.18,4.71,0.00,26.57,27.92,31.10,13.91,52.42,1028.33,2020.20,1927.71,2104.24,2325.62,600.09,595.81,46.50,0000 0000 0000 0000 000000
2018-02-18 10:30:45,0.19,4.72,0.00,26.57,27.92,31.11,13.87,52.40,1028.33,2020.42,1925.43,2103.05,2324.32,599.75,595.32,46.55,0000 0000 0000 0000 000000
2018-02-18 10:35:46,0.12,4.73,0.00,26.57,27.92,31.12,13.99,52.52,1028.31,2020.23,1923.38,2102.05,2323.05,600.47,596.18,46.60,0000 0000 0000 0000 000000
2018-02-18 10:40:48,0.14,4.73,0.00,26.57,27.93,31.12,13.94,52.47,1028.29,2020.20,1921.47,2101.10,2321.93,599.83,595.50,46.65,0000 0000 0000 0000 000000
2018-02-18 10:45:49,0.14,4.74,0.00,26.57,27.94,31.12,13.92,52.50,1028.27,2020.20,1919.73,2100.26,2320.91,599.97,595.62,46.70,0000 0000 0000 0000 000000
2018-02-18 10:50:50,0.14,4.75,0.00,26.57,27.95,31.10,13.87,52.38,1028.26,2020.32,1918.05,2099.47,2319.87,599.90,595.50,46.75,0000 0000 0000 0000 000000
2018-02-18 10:55:51,0.12,4.76,0.00,26.56,27.95,31.11,13.90,52.36,1028.21,2020.39,1916.35,2098.73,2318.93,600.13,595.82,46.81,0000 0000 0000 0000 000000
2018-02-18 11:00:53,0.09,4.76,0.00,26.54,27.95,31.06,13.84,52.40,1028.10,2020.17,1914.65,2097.93,2317.94,599.57,595.24,46.86,0000 0000 0000 0000 000000
2018-02-18 11:05:54,0.13,4.77,0.00,26.54,27.95,31.02,13.87,52.56,1028.12,2020.18,1913.01,2097.09,2317.03,600.00,595.67,46.91,0000 0000 0000 0000 000000
2018-02-18 11:10:55,0.14,4.77,0.00,26.56,27.95,31.06,13.90,52.46,1027.95,2020.40,1911.55,2096.60,2316.20,599.99,595.40,46.96,0000 0000 0000 0000 000000
2018-02-18 11:15:56,0.09,4.78,0.00,26.57,27.95,31.07,13.85,52.51,1027.92,2020.18,1909.83,2095.84,2315.28,599.74,595.23,47.01,0000 0000 0000 0000 000000
2018-02-18 11:20:58,0.10,4.78,0.00,26.55,27.95,31.08,13.88,52.51,1027.90,2020.10,1908.42,2095.06,2314.41,599.91,595.41,47.06,0000 0000 0000 0000 000000
2018-02-18 11:25:59,0.11,4.79,0.00,26.57,27.95,31.09,13.87,52.48,1027.88,2020.06,1906.99,2094.33,2313.47,599.81,595.30,47.11,0000 0000 0000 0000 000000
2018-02-18 11:31:00,0.11,4.80,0.00,26.55,27.95,31.07,13.89,52.40,1027.88,2020.05,1905.56,2093.59,2312.56,600.08,595.69,47.16,0000 0000 0000 0000 000000
2018-02-18 11:36:02,0.10,4.80,0.00,26.56,27.95,31.06,13.89,52.46,1027.90,2020.07,1904.09,2092.89,2311.74,600.02,595.53,47.21,0000 0000 0000 0000 000000
2018-02-18 11:41:03,0.11,4.81,0.00,26.57,27.95,31.03,13.88,52.32,1027.88,2020.05,1902.66,2092.06,2310.84,600.51,595.92,47.26,0000 0000 0000 0000 000000
2018-02-18 11:46:04,0.12,4.81,0.00,26.57,27.95,31.06,13.95,52.48,1027.87,2020.09,1901.19,2091.32,2309.94,600.21,595.59,47.31,0000 0000 0000 0000 000000
2018-02-18 11:51:05,0.12,4.82,0.00,26.54,27.95,31.03,13.92,52.38,1027.87,2020.04,1899.64,2090.54,2309.04,599.83,595.33,47.36,0000 0000 0000 0000 000000
2018-02-18 11:56:07,0.09,4.83,0.00,26.54,27.95,31.05,13.93,52.38,1027.88,2020.04,1898.12,2089.91,2308.18,599.65,595.23,47.41,0000 0000 0000 0000 000000
2018-02-18 12:01:08,0.14,4.83,0.00,26.56,27.95,31.05,13.90,52.35,1027.88,2020.06,1896.62,2089.07,2307.34,599.92,595.41,47.46,0000 0000 0000 0000 000000
2018-02-18 12:06:09,0.12,4.84,0.00,26.57,27.95,31.09,13.88,52.44,1027.86,2020.08,1895.24,2088.36,2306.52,599.82,595.29,47.51,0000 0000 0000 0000 000000
2018-02-18 12:11:11,0.10,4.84,0.00,26.58,27.95,31.04,13.88,52.40,1027.86,2020.03,1893.71,2087.68,2305.61,599.86,595.31,47.56,0000 0000 0000 0000 000000
2018-02-18 12:16:12,0.09,4.85,0.00,26.58,27.95,31.09,13.88,52.48,1027.87,2020.03,1892.21,2086.96,2304.77,600.00,595.41,47.61,0000 0000 0000 0000 000000
2018-02-18 12:21:13,0.13,4.86,0.00,26.55,27.95,31.10,13.93,52.45,1027.86,2020.03,1890.69,2086.12,2303.85,600.28,595.75,47.66,0000 0000 0000 0000 000000
2018-02-18 12:26:14,0.11,4.86,0.00,26.56,27.95,31.02,13.95,52.41,1027.85,2020.02,1889.20,2085.37,2303.01,600.31,595.80,47.71,0000 0000 0000 0000 000000
2018-02-18 12:31:16,0.11,4.87,0.00,26.56,27.95,30.99,13.87,52.35,1027.85,2020.02,1887.65,2084.83,2302.16,599.74,595.23,47.77,0000 0000 0000 0000 000000
2018-02-18 12:36:17,0.11,4.87,0.00,26.52,27.95,31.00,13.96,52.39,1027.85,2020.02,1886.15,2084.02,2301.30,600.80,596.34,47.82,0000 0000 0000 0000 000000
2018-02-18 12:41:18,0.12,4.88,0.00,26.55,27.95,31.08,13.86,52.52,1027.85,2020.01,1884.68,2083.20,2300.44,599.58,595.04,47.87,0000 0000 0000 0000 000000
2018-02-18 12:46:20,0.10,4.88,0.00,26.55,27.95,31.03,13.89,52.50,1027.85,2020.03,1883.17,2082.74,2299.75,599.88,595.33,47.92,0000 0000 0000 0000 000000
2018-02-18 12:51:21,0.10,4.89,0.00,26.55,27.95,31.09,13.88,52.47,1027.84,2020.07,1881.71,2082.00,2298.87,600.14,595.77,47.97,0000 0000 0000 0000 000000
2018-02-18 12:56:22,0.11,4.90,0.00,26.57,27.95,31.06,13.92,52.38,1027.84,2020.04,1880.41,2081.18,2297.90,600.18,595.78,48.02,0000 0000 0000 0000 000000